IRIDIUM 33 DEB, 35299

Orbit data source: Space-Track

IRIDIUM 33 DEB, 35299 is space debris in LEO originally from a launch on Sun, 14 Sep 1997 UTC launched from the Tyuratam Missile And Space Complex (TTMTR). The debris from Iridium 33, an American commercial communications satellite, has been tracked extensively since its accidental collision with the defunct Russian satellite Cosmos 2251 in 2009. This event, occurring at high speed in low Earth orbit (LEO), generated thousands of pieces of space debris, significantly increasing the risk of further collisions. The Iridium 33 debris cloud has impacted space traffic management and orbital debris mitigation strategies, making it a subject of ongoing study in space situational awareness.

Loading next visibility...
Identifier
35299, 1997-051PP
Orbit
LEO
Country
Flag of USUS
Related business
Manufacturer
Unknown
Mission
Spacecraft
Bus & Motor
Unknown
Mass
Unknown
Launch date (UTC)
1997-09-14 (29 years ago)
Launch vehicle
Unknown
Launch site
Tyuratam Missile And Space Complex (TTMTR)
Object type
Payload
Rocket body
Debris
Shape & HBR
Unknown shape, 0.1 m
Radar Cross Section
Medium (>0.1 m² and <1 m²)

Expand to show TLE details & history
Last TLE update: 1 day ago

TLE from 1 day ago
0 IRIDIUM 33 DEB
1 35299U 97051PP  26167.17493455  .00003529  00000-0  10431-2 0  9990
2 35299  86.2873 312.3590 0054564 208.2994 330.3303 14.42382566890020
Epoch: 2026-06-16T04:11Z
TLE epoch observation values (Epoch: 2026-06-16T04:11:54.345Z)
Latitude
1.5679°
Longitude
164.8306°
Altitude
719.756 km
Speed
7.513 km/s
True Right ascension
08h 49m 01s
True Declination
1° 33' 30"
Sunlit
Object was in daylight at epoch
Visualization orbit readout
Latitude
Unknown
Longitude
Unknown
Altitude
Unknown
Speed
Unknown
Apparent Right ascension
Unknown
Apparent Declination
Unknown
Sunlit
N/A
Visualization observer readout
Local Sidereal Time
21:18:51
Azimuth
Unknown
Elevation
Unknown
Doppler factor
Unknown
Orbital elements
Apogee altitude
786.473 km
Perigee altitude
708.712 km
Semi-major axis
7,125.729 km
Eccentricity
0.00546
Inclination
86.2873°
RAAN
312.359°
Arg. of periapsis
208.2994°
True anomaly
330.01895°
Mean anomaly
330.3303°
Eccentric anomaly
330.17481°
Mean motion
3.60827 °/min
Orbital period
99.77 mins
BSTAR
0.0010431
Loading maneuver chart data...
Computing Atmospheric mass density...
Loading historical data...
Loading historical data...
Loading historical data...
Loading historical data...
Loading historical data...
Loading historical data...
Loading historical data...

Documentation

Showing up to 5 results
|